User: anonymous   Login
Location: Unspecified
(33.3110°N, 0.0000°E)
Time: 21:29:44
(UTC+00:00)
Language:

N. Korean satellite - Orbit

View from above orbital plane
View from above orbital plane
View from above satellite
View from above satellite

Ground track
Ground track

The orbit data is extracted from the following two-line orbital elements,

1 39026U 12072A   19170.90825616 +.00000844 +00000-0 +33032-4 0  9998
2 39026 097.2104 174.0171 0039956 096.6942 263.8848 15.27805699361724
Epoch (UTC): 19 June 2019 21:47:53
Eccentricity: 0.0039956
inclination: 97.2104°
perigee height: 455 km
apogee height: 510 km
right ascension of ascending node: 174.0171°
argument of perigee: 96.6942°
revolutions per day: 15.27805699
mean anomaly at epoch: 263.8848°
orbit number at epoch: 36172

The dashed part of the orbit path shows where the satellite is in the earth's shadow,  

DLR